Temp_Advection
nan nan nan nan nan nan nan nan nan nan nan nan nan nan nan nan nan nan nan nan nan nan nan nan nan nan nan nan nan nan nan nan nan nan nan nan nan nan nan nan nan nan nan nan
nan -0 -0 -0 0 -0 -0 -0 -0 0 0 -0 -0 -0 -0 0 -0 -0 -0 -0 -0 -0 -0 0 0 0 0 0 0 0 0 0 0 -0 -0 -0 -0 -0 -0 -0 -0 -0 -0 nan
nan -0 0 0 -0 -0 -0 -0 0 -0 0 -0 0 0 -0 -1 -1 -1 -1 -1 -1 -0 0 0 0 0 0 0 0 0 0 0 0 -0 -0 -0 -0 -0 -0 -0 -0 -0 -0 nan
nan -0 0 -0 -0 -0 -0 0 0 -0 0 -0 -1 1 1 -0 -1 -1 -1 -0 -0 0 0 0 0 1 1 0 0 0 0 0 -0 -0 -0 -0 -0 -0 -0 -0 -0 -0 -0 nan
nan -0 -0 -0 -0 -0 -0 0 0 0 0 -0 1 -0 -1 1 1 0 1 0 0 1 1 1 1 1 1 0 0 0 0 0 -0 -0 -0 -0 -0 -0 -0 -0 -0 -0 -0 nan
nan 0 0 -0 0 -0 0 0 -0 0 0 -0 0 -0 0 3 2 1 1 1 1 1 1 1 1 1 1 0 0 0 0 0 -0 -0 -0 -0 -0 -0 -0 -0 -0 -0 -0 nan
nan 0 -1 -0 -0 -0 0 0 0 -0 0 1 0 0 -0 1 2 2 1 1 1 1 1 1 1 1 0 0 0 0 0 -0 -0 -0 -0 -0 -0 -0 -0 -0 -0 -0 -0 nan
nan 0 -0 0 0 0 0 -0 -0 0 0 -2 0 2 1 1 1 1 1 1 1 1 1 1 1 0 0 0 0 0 0 -0 -0 -0 -0 -0 -0 -0 -0 -0 -1 -0 -0 nan
nan -0 -0 -0 0 0 -0 -0 -0 -0 0 -1 -2 0 0 1 1 1 1 0 1 0 0 0 0 0 0 0 0 0 0 -0 -0 -0 0 -0 -0 -0 -0 -0 -0 -1 -1 nan
nan 0 0 0 0 0 0 -0 -1 -0 -1 -0 -2 -0 -0 0 0 0 0 0 0 0 0 0 0 0 0 0 0 0 -0 -0 -0 -0 -0 -0 -0 -0 -0 -0 -0 -1 -0 nan
nan -0 0 -0 0 0 0 0 -0 0 0 0 -1 -1 -0 -0 0 0 0 0 0 0 0 0 0 0 0 0 0 0 -0 -0 -0 -0 -0 -0 -0 0 0 -0 -0 0 -0 nan
nan -1 -0 -0 0 0 0 0 0 -0 -0 1 1 -1 -0 -0 0 0 0 0 0 0 0 0 0 0 0 0 0 -0 -0 -0 -0 -0 -0 -0 -0 -0 -0 0 0 0 0 nan
nan -0 0 -0 1 1 0 0 0 0 -0 -0 0 0 -0 -1 -0 0 0 0 0 0 0 0 0 0 0 0 -0 -0 -0 -0 -0 -0 -0 -0 -0 -1 -1 -1 -0 0 0 nan
nan -2 -1 1 0 1 1 0 0 1 1 0 -0 0 0 -0 -0 0 0 0 0 0 0 0 0 0 0 0 -0 -0 -0 -0 -0 -0 -0 -0 -0 -0 -0 -1 -1 -1 0 nan
nan 0 -0 -0 -0 1 1 0 -0 0 0 0 0 0 0 -0 -0 0 0 0 0 0 0 0 0 0 0 -0 -0 -0 -0 -0 -0 -0 -0 -0 -0 -0 -0 -0 -0 -1 -1 nan
nan 1 1 1 1 1 1 0 -1 -0 0 -0 -0 -0 0 -0 -0 -0 0 0 0 0 0 0 0 0 -0 -0 -0 -0 -0 -0 -0 -0 -0 -0 -0 -0 -0 -0 -0 -0 -0 nan
nan -0 0 -0 0 1 1 0 0 -1 -0 0 -0 -0 -0 -0 -0 -0 0 0 0 0 0 0 0 0 0 -0 -0 -0 -0 -0 -0 -0 -0 -0 -0 -0 0 0 -0 -0 -0 nan
nan -1 -0 -0 -0 -0 0 1 1 0 -0 -0 -0 -0 -0 0 -0 -0 0 0 0 0 0 0 0 0 -0 -0 -0 -0 -0 -0 -0 -0 -0 -0 0 0 0 -0 -0 -0 -0 nan
nan 1 1 1 0 -0 -0 0 0 0 0 0 -0 -0 -0 -0 0 -0 0 0 0 0 0 0 -0 -0 -0 -0 -0 -0 -0 -0 -0 -0 0 -0 -0 0 0 0 -0 -0 -0 nan
nan 1 1 1 1 0 -0 0 0 -0 0 0 -0 -0 -0 -0 -0 -0 0 0 0 0 0 -0 -0 -0 -0 -0 -0 -0 -0 -0 -0 -0 0 -0 -0 -0 -0 0 0 -0 -0 nan
nan 1 1 1 1 1 0 0 0 -0 -0 0 0 -0 -0 -0 -0 0 0 0 0 0 -0 -0 -0 -0 -0 -0 -0 -0 -0 -0 0 0 0 0 -0 -0 0 -0 -0 0 0 nan
nan 0 -0 0 0 0 1 1 0 -0 -0 -0 0 -0 -0 -0 -0 -0 -0 0 0 -0 -0 -0 -0 -0 -0 -0 -0 -0 -0 -0 -0 -0 0 0 0 -0 -0 0 -0 -0 0 nan
nan 0 0 0 -0 -1 -0 0 0 0 -0 -0 -0 -0 -0 -0 -0 0 0 -0 -0 -0 -0 -0 -0 -0 -0 -0 -0 -0 -0 -0 -0 -0 -0 -0 0 0 0 -0 0 -0 0 nan
nan 0 0 0 0 -0 -1 -0 0 0 0 -0 -0 -0 -0 -0 -0 -0 -0 -0 -0 -0 -0 -0 -0 -0 -0 -0 -0 -0 -0 -0 -0 -0 0 0 0 0 0 0 0 0 -0 nan
nan 0 0 0 0 0 -0 -0 -0 -0 0 -0 -0 -0 0 0 -0 -0 -0 -0 -0 -0 -0 -0 -0 -0 -0 -0 -0 -0 -0 -0 -0 0 -0 -0 0 0 0 0 -0 -0 0 nan
nan -0 0 0 0 0 -0 0 0 -0 0 0 -0 -0 0 -0 -0 -0 -0 -0 -0 -0 -0 -0 -0 -0 -0 -0 -0 -0 0 0 -0 -0 0 -0 -0 0 -0 0 0 0 0 nan
nan nan nan nan nan nan nan nan nan nan nan nan nan nan nan nan nan nan nan nan nan nan nan nan nan nan nan nan nan nan nan nan nan nan nan nan nan nan nan nan nan nan nan nan
Wind_Speed
13 16 9 8 5 7 5 4 4 5 6 8 8 10 14 26 29 32 36 40 41 39 34 29 26 24 22 19 17 14 12 8 3 3 8 11 12 12 13 15 18 22 24 25
7 8 8 7 5 6 4 3 2 3 2 4 5 11 13 27 31 29 31 33 37 36 32 28 27 26 23 19 16 14 11 6 2 4 9 12 11 12 15 18 21 23 24 26
2 4 5 3 7 4 2 2 5 3 5 4 6 8 13 24 29 31 36 38 37 35 31 28 27 25 23 18 15 13 9 5 2 6 10 10 11 14 17 20 23 24 25 27
3 4 2 4 2 8 11 5 6 4 3 3 10 15 11 25 35 36 37 37 35 32 28 28 26 23 20 16 13 12 8 4 3 8 9 10 12 16 19 22 23 25 27 28
1 2 5 2 4 3 6 6 6 11 6 12 19 15 14 12 27 32 33 33 31 28 27 28 26 23 18 14 14 11 6 2 5 8 8 11 15 18 21 23 25 27 28 29
3 2 3 2 4 3 1 2 2 1 11 15 11 5 3 17 21 26 28 29 29 28 28 27 23 18 14 14 13 8 3 3 6 6 9 13 17 20 23 24 26 28 29 29
2 2 6 4 3 6 2 4 6 4 15 18 6 4 26 23 25 26 28 28 27 26 24 21 17 15 15 14 10 5 2 4 4 7 11 15 18 21 24 25 27 28 30 30
2 2 6 2 2 2 3 4 6 12 18 25 29 34 31 26 26 25 26 24 21 21 19 17 15 15 13 10 6 3 2 2 5 9 13 16 20 23 24 26 28 30 32 33
6 6 2 1 2 4 2 7 10 23 24 30 33 31 29 28 25 23 21 20 18 19 19 16 14 11 9 7 5 2 1 3 7 11 14 19 22 23 25 27 28 30 31 34
4 5 4 6 4 5 9 12 17 22 26 27 33 30 28 26 24 22 20 19 18 17 17 17 14 11 7 5 3 1 2 5 9 14 17 20 21 23 26 28 28 29 30 32
2 1 2 4 7 14 19 19 21 21 23 28 30 27 26 25 23 21 19 17 15 14 14 13 11 8 6 4 3 1 4 8 12 16 19 21 22 25 26 25 23 25 26 27
5 10 6 6 19 24 24 24 24 27 26 24 24 26 24 22 20 18 17 15 14 12 11 11 10 7 6 4 1 3 7 11 15 18 20 22 25 27 24 25 24 22 21 21
4 6 5 18 25 23 25 26 26 26 26 26 22 22 20 21 18 16 14 13 11 10 10 9 7 6 5 1 2 6 10 14 17 19 22 24 26 28 31 29 26 25 24 23
15 23 17 23 14 24 27 27 26 25 23 22 22 18 17 17 16 14 13 12 11 10 9 7 6 5 2 2 5 9 13 15 18 21 23 25 26 26 27 29 32 33 30 27
12 4 18 19 27 28 28 29 28 27 24 22 18 18 15 15 15 14 13 12 11 10 8 8 6 4 2 4 8 11 14 17 20 22 23 24 24 25 26 27 30 32 34 33
14 18 25 31 32 31 30 28 29 27 23 21 19 17 15 14 13 12 11 9 8 8 8 6 4 1 4 7 10 13 16 18 21 23 23 22 23 26 26 28 29 30 32 34
27 22 29 32 32 31 29 27 25 25 23 19 17 16 15 14 13 12 11 9 8 6 5 3 2 4 6 9 13 15 18 20 21 22 21 22 24 25 26 27 28 30 32 32
16 19 26 30 34 32 28 25 24 22 20 18 16 14 13 12 11 11 9 8 6 5 4 2 3 5 8 12 14 17 18 20 21 21 21 22 24 24 25 25 28 31 33 33
12 20 22 30 32 30 28 26 23 20 19 16 15 14 12 11 10 9 8 7 6 4 2 2 3 7 11 13 15 17 20 20 20 20 21 23 23 24 24 26 28 30 31 31
20 25 30 32 29 27 28 24 22 20 17 15 14 13 12 11 8 7 7 6 4 2 1 4 7 10 12 14 16 18 19 19 20 20 22 23 23 24 25 27 28 30 30 29
29 33 34 32 31 28 24 22 20 19 17 14 12 12 10 9 8 6 4 3 3 2 2 6 9 11 13 15 16 18 19 19 19 20 22 23 24 25 26 27 28 29 29 27
34 35 35 33 32 29 23 20 17 17 15 13 11 9 8 8 7 6 5 3 2 1 5 8 10 12 14 15 17 18 18 18 19 21 22 23 24 25 27 29 30 29 28 28
36 36 34 31 30 28 24 19 16 13 12 10 8 8 7 7 6 5 4 3 1 4 7 9 11 12 14 16 17 17 18 19 20 21 22 23 24 27 28 28 28 28 27 27
36 32 30 27 25 23 22 18 14 12 10 9 8 8 6 6 6 5 3 2 3 6 9 10 12 13 15 16 17 18 18 19 21 22 23 24 25 24 26 27 27 27 26 25
30 28 26 23 21 19 17 15 13 11 10 9 9 8 7 5 3 3 2 3 6 7 9 10 12 14 16 17 17 18 19 20 22 24 24 24 24 25 25 25 25 25 25 24
27 24 21 16 15 15 14 13 11 11 9 10 10 8 5 4 3 2 3 5 7 8 10 12 14 15 16 17 18 19 20 22 23 23 23 23 23 23 23 23 23 23 23 22
22 19 19 18 16 14 12 11 9 11 10 8 7 7 5 3 2 3 5 6 8 10 11 13 15 16 17 18 19 20 21 22 21 22 22 21 21 22 21 22 22 22 21 20
Wind_Direction
262 241 203 187 164 148 166 212 83 184 127 188 186 168 160 156 156 159 166 173 180 181 183 186 189 192 196 198 200 201 198 195 210 327 342 343 339 339 340 337 335 336 334 333
346 150 138 165 196 207 161 156 309 164 347 190 130 136 139 157 160 163 168 172 182 183 186 189 191 194 198 200 200 199 192 195 234 333 341 341 343 340 338 338 336 335 334 333
29 278 106 34 240 211 207 224 141 165 212 114 148 170 168 163 167 168 174 185 187 187 190 192 193 199 200 200 201 194 190 201 269 330 343 348 342 338 337 336 335 335 334 334
310 15 66 245 108 201 195 210 200 258 108 148 126 100 154 182 181 180 185 185 185 187 189 189 193 197 198 199 198 190 193 214 312 337 344 344 339 338 336 337 337 336 337 337
48 302 278 355 8 72 168 242 192 207 162 129 130 92 43 159 185 184 184 182 182 186 187 185 190 193 196 194 187 187 196 247 326 337 342 341 339 339 339 337 338 338 337 336
354 122 193 230 310 333 347 272 25 144 164 156 159 131 190 120 159 167 170 170 172 177 178 182 182 191 191 181 182 186 196 309 326 339 344 341 341 342 339 338 337 336 335 337
291 353 291 251 315 337 109 243 320 270 176 157 138 159 146 136 130 141 150 157 164 167 171 176 179 184 179 178 177 182 250 312 336 347 343 343 343 340 338 337 335 336 335 335
107 58 283 142 56 163 214 27 88 108 139 111 119 133 141 139 136 142 146 150 158 161 165 169 175 175 171 170 175 196 281 330 347 346 344 342 340 340 338 337 336 336 334 335
186 211 237 46 129 128 150 128 122 124 128 133 134 140 142 137 139 143 149 152 156 159 158 159 163 168 168 173 181 236 296 343 346 344 341 341 340 338 337 339 337 335 335 335
132 223 198 165 149 145 153 138 143 139 140 143 138 140 137 138 140 144 146 149 153 156 158 159 164 166 172 175 203 214 326 347 342 339 340 340 338 337 339 340 338 337 332 330
256 279 105 196 191 154 137 135 137 140 144 142 139 141 142 144 146 148 149 152 156 156 158 161 164 171 178 186 187 286 345 341 337 339 339 336 336 340 340 340 339 330 328 328
215 193 176 178 170 156 147 144 144 142 139 141 142 142 144 142 146 151 152 154 157 157 162 163 168 176 177 174 184 340 333 335 337 337 336 335 337 337 337 340 340 336 330 328
193 186 179 146 156 158 150 147 146 143 141 140 140 139 143 141 145 149 155 162 165 160 162 167 173 169 168 168 326 325 331 336 337 336 335 337 338 337 337 339 341 343 341 332
140 128 108 142 153 156 151 145 144 139 139 138 138 140 139 141 144 151 158 164 165 167 169 176 176 177 186 288 320 328 333 336 335 334 336 336 337 337 337 337 338 341 344 341
140 148 157 153 152 151 151 148 141 138 140 137 138 137 141 141 145 148 152 158 165 171 174 177 184 195 254 313 320 329 334 334 334 335 334 334 333 334 336 338 338 336 337 342
130 134 145 151 153 153 153 151 145 141 141 138 137 136 135 136 138 142 148 155 169 172 174 181 191 237 300 311 324 331 331 333 333 332 333 333 335 336 337 336 333 335 337 338
137 137 151 151 156 155 157 156 150 144 141 138 135 134 134 136 140 145 151 157 164 165 164 176 235 280 303 321 327 329 333 333 332 331 333 335 335 334 331 330 332 333 334 335
198 182 173 167 161 156 153 151 147 143 138 135 133 133 135 137 137 143 149 156 161 164 177 223 276 306 320 324 328 331 330 330 331 332 333 332 332 328 328 331 332 333 332 333
181 170 166 164 159 153 149 146 142 137 134 135 135 136 135 132 131 135 145 157 173 187 201 241 308 318 324 329 327 329 329 330 332 332 330 328 329 331 332 333 332 331 331 334
157 161 158 153 151 149 143 141 139 136 134 136 136 135 134 129 131 144 154 157 155 162 225 304 318 325 327 326 327 329 330 331 330 329 328 329 329 330 330 329 330 330 332 334
150 149 148 147 144 141 140 139 139 135 133 132 134 132 130 133 141 151 154 145 157 144 323 319 321 323 325 325 329 331 330 329 328 327 328 329 327 328 328 328 329 331 331 330
147 146 144 144 139 134 134 134 136 132 133 134 131 127 131 135 140 143 144 146 143 330 321 323 323 324 326 329 330 329 329 328 327 326 326 327 327 327 327 329 329 329 329 328
147 146 144 143 139 135 135 134 132 130 128 125 125 127 131 130 130 132 140 124 23 335 327 323 323 327 327 329 329 328 328 327 327 327 326 327 328 328 326 327 328 327 328 330
143 142 140 139 137 136 136 133 133 129 127 125 124 121 114 124 132 131 114 45 345 328 324 328 332 329 327 327 327 328 329 328 327 326 328 329 327 326 326 328 329 330 328 331
142 141 138 138 140 137 135 135 136 130 129 128 126 127 127 125 114 102 49 349 328 329 332 331 325 324 326 329 330 331 330 327 328 330 329 329 331 331 331 331 330 330 332 331
141 139 138 141 140 138 137 136 137 132 135 136 133 128 122 107 84 41 346 335 336 333 327 325 326 329 332 332 332 331 328 328 329 330 330 332 333 332 332 332 332 332 333 332
143 146 146 143 140 140 139 140 144 140 138 133 131 126 115 93 24 341 338 334 327 326 327 330 331 332 334 334 332 329 329 330 330 330 332 332 333 336 336 334 336 336 335 336
Height
1380 1380 1376 1375 1376 1381 1389 1385 1384 1387 1386 1389 1387 1386 1387 1393 1401 1408 1414 1418 1423 1429 1436 1442 1447 1451 1455 1459 1462 1464 1466 1468 1470 1470 1470 1468 1466 1465 1463 1460 1457 1454 1450 1446
1375 1366 1369 1374 1373 1377 1383 1382 1382 1385 1383 1379 1383 1386 1390 1393 1399 1406 1413 1418 1423 1429 1435 1440 1444 1448 1453 1457 1460 1463 1465 1467 1468 1468 1467 1465 1463 1462 1459 1456 1453 1449 1446 1441
1386 1374 1372 1381 1373 1373 1374 1374 1379 1387 1383 1378 1385 1387 1388 1393 1397 1402 1408 1414 1420 1426 1432 1437 1442 1446 1451 1455 1458 1461 1463 1465 1466 1465 1464 1462 1460 1458 1456 1453 1449 1446 1442 1437
1386 1379 1392 1370 1365 1366 1372 1371 1375 1375 1381 1380 1384 1389 1390 1394 1395 1400 1406 1412 1419 1425 1431 1436 1441 1446 1450 1454 1457 1460 1462 1463 1463 1463 1461 1459 1457 1455 1453 1449 1445 1441 1437 1432
1393 1393 1380 1366 1368 1369 1373 1374 1371 1374 1378 1383 1386 1387 1394 1393 1397 1400 1405 1411 1417 1424 1430 1435 1440 1445 1450 1453 1456 1459 1460 1461 1461 1459 1458 1457 1455 1452 1449 1445 1441 1437 1432 1428
1407 1400 1390 1373 1368 1367 1366 1381 1373 1373 1375 1379 1383 1395 1402 1398 1398 1401 1407 1413 1418 1425 1430 1435 1441 1445 1449 1452 1455 1457 1458 1459 1458 1457 1456 1454 1451 1448 1445 1441 1437 1433 1428 1424
1397 1396 1386 1370 1368 1367 1377 1381 1369 1367 1368 1373 1380 1384 1394 1400 1401 1406 1411 1416 1422 1427 1432 1437 1441 1445 1448 1451 1454 1456 1456 1456 1456 1455 1453 1451 1448 1445 1441 1437 1433 1428 1423 1419
1397 1398 1400 1368 1369 1373 1374 1371 1370 1367 1369 1374 1380 1386 1394 1400 1405 1410 1415 1420 1425 1429 1434 1438 1442 1445 1448 1451 1453 1454 1455 1454 1454 1453 1451 1448 1445 1441 1437 1433 1428 1422 1417 1412
1384 1381 1370 1369 1370 1371 1372 1372 1374 1373 1377 1377 1383 1391 1397 1402 1408 1414 1418 1422 1427 1430 1434 1439 1442 1445 1448 1450 1451 1452 1453 1452 1451 1450 1448 1445 1441 1437 1433 1428 1423 1417 1412 1406
1379 1370 1370 1371 1371 1371 1372 1373 1375 1377 1380 1384 1387 1395 1400 1406 1411 1416 1421 1424 1428 1432 1435 1438 1442 1445 1447 1449 1450 1451 1451 1450 1449 1447 1444 1441 1438 1434 1429 1424 1418 1414 1409 1404
1373 1371 1371 1371 1371 1372 1374 1376 1379 1383 1386 1389 1392 1399 1404 1409 1414 1419 1423 1427 1430 1433 1436 1439 1442 1444 1446 1447 1448 1449 1448 1447 1446 1443 1440 1437 1434 1430 1425 1422 1417 1412 1408 1403
1364 1359 1360 1363 1368 1371 1374 1377 1381 1384 1391 1396 1398 1402 1408 1412 1417 1421 1425 1428 1431 1434 1437 1439 1442 1444 1445 1446 1446 1446 1446 1444 1442 1440 1437 1433 1429 1425 1423 1418 1414 1410 1406 1401
1354 1355 1359 1362 1368 1372 1376 1380 1385 1389 1393 1396 1403 1406 1410 1414 1418 1422 1425 1428 1431 1434 1437 1439 1441 1442 1443 1444 1444 1444 1443 1441 1439 1436 1433 1428 1424 1419 1413 1411 1409 1405 1400 1396
1354 1356 1364 1366 1370 1375 1379 1384 1389 1393 1397 1401 1404 1409 1412 1415 1419 1423 1426 1428 1431 1433 1436 1438 1440 1441 1442 1443 1442 1442 1440 1438 1435 1432 1428 1424 1420 1416 1412 1406 1400 1396 1394 1391
1356 1357 1360 1365 1372 1378 1382 1386 1391 1396 1400 1404 1408 1411 1414 1417 1420 1423 1426 1428 1432 1434 1436 1437 1439 1440 1441 1441 1440 1439 1437 1434 1431 1428 1424 1420 1416 1412 1408 1403 1399 1394 1388 1384
1359 1361 1364 1368 1374 1379 1384 1389 1392 1398 1403 1406 1409 1413 1415 1418 1421 1424 1426 1429 1432 1434 1435 1436 1438 1438 1439 1438 1437 1436 1434 1431 1427 1423 1420 1416 1413 1408 1404 1400 1396 1391 1385 1380
1359 1366 1368 1373 1376 1381 1386 1391 1395 1399 1403 1407 1410 1413 1416 1419 1422 1424 1426 1429 1431 1433 1434 1435 1436 1437 1436 1435 1434 1432 1429 1426 1423 1420 1416 1412 1408 1404 1401 1397 1392 1387 1382 1378
1357 1360 1365 1369 1374 1381 1388 1393 1397 1401 1404 1408 1411 1414 1417 1420 1422 1424 1426 1428 1430 1432 1433 1434 1434 1434 1433 1432 1430 1428 1425 1422 1419 1415 1412 1408 1404 1401 1397 1392 1388 1383 1378 1373
1359 1362 1367 1372 1378 1384 1389 1394 1398 1402 1405 1409 1412 1415 1418 1420 1421 1424 1426 1428 1429 1430 1432 1432 1432 1431 1430 1429 1426 1424 1421 1418 1414 1411 1408 1405 1401 1397 1393 1388 1384 1379 1374 1369
1360 1364 1369 1375 1382 1387 1391 1396 1400 1403 1407 1410 1413 1416 1418 1419 1421 1424 1426 1427 1428 1429 1430 1430 1429 1429 1427 1425 1423 1420 1417 1414 1411 1408 1404 1400 1396 1392 1389 1385 1380 1375 1370 1365
1362 1367 1374 1379 1383 1389 1394 1399 1402 1405 1408 1412 1414 1416 1417 1419 1422 1423 1424 1425 1427 1428 1428 1428 1427 1426 1424 1422 1419 1416 1413 1410 1407 1404 1400 1396 1392 1388 1384 1380 1376 1371 1366 1362
1366 1371 1377 1382 1386 1391 1397 1401 1405 1407 1409 1412 1414 1415 1417 1419 1421 1422 1424 1426 1426 1427 1426 1425 1424 1423 1420 1418 1415 1413 1410 1407 1403 1400 1396 1392 1388 1384 1380 1375 1370 1366 1362 1357
1371 1376 1380 1386 1389 1393 1399 1403 1406 1408 1410 1412 1413 1416 1417 1419 1421 1423 1424 1424 1424 1424 1424 1423 1421 1419 1417 1415 1412 1409 1406 1402 1399 1395 1391 1387 1383 1379 1375 1370 1366 1362 1357 1352
1375 1380 1385 1389 1392 1396 1399 1404 1406 1408 1410 1412 1414 1416 1418 1419 1421 1422 1423 1423 1423 1423 1422 1420 1418 1416 1414 1412 1409 1406 1402 1398 1394 1391 1387 1383 1378 1375 1371 1366 1361 1357 1353 1349
1380 1384 1388 1391 1395 1397 1400 1403 1406 1409 1411 1412 1414 1416 1418 1419 1421 1421 1421 1421 1421 1421 1419 1418 1416 1414 1412 1408 1405 1402 1398 1394 1390 1386 1382 1377 1373 1370 1366 1362 1358 1353 1349 1346
1382 1386 1390 1394 1396 1398 1401 1404 1407 1409 1411 1413 1415 1417 1418 1419 1419 1420 1420 1420 1419 1418 1417 1415 1413 1410 1407 1404 1401 1397 1393 1389 1385 1382 1378 1374 1370 1366 1362 1358 1354 1350 1346 1342
1384 1388 1390 1394 1397 1400 1403 1405 1407 1409 1411 1413 1414 1416 1417 1418 1419 1419 1419 1418 1418 1416 1415 1412 1410 1407 1403 1400 1397 1393 1389 1386 1382 1377 1374 1370 1367 1363 1359 1355 1351 1347 1343 1339